Grub im Wienerwald
Wetterdaten: aktuell Samstag, 31.10.2020 06:03
Datum Zeit Temp. A. Feuchte A. Luftdruck Regen Wind Richtung Richtung Sonnenschein UV Solar Taupunkt Windchill Windben
31.10.2020 06:03 11,4 C 86 % 1022,0 hPa 0,0 l/m 9,2 km/h N-NW 344 0 min 0,0 UV-I 0 W/m 9,1 C 9,6 C 14,5 km/h
31.10.2020 06:00 11,4 C 86 % 1022,0 hPa 0,0 l/m 9,3 km/h NW 317 0 min 0,0 UV-I 0 W/m 9,1 C 9,5 C 14,5 km/h
31.10.2020 05:57 11,4 C 86 % 1022,1 hPa 0,0 l/m 10,4 km/h NW 318 0 min 0,0 UV-I 0 W/m 9,1 C 8,9 C 16,1 km/h
31.10.2020 05:54 11,4 C 86 % 1021,9 hPa 0,0 l/m 12,3 km/h N-NW 347 0 min 0,0 UV-I 0 W/m 9,1 C 8,0 C 32,2 km/h
31.10.2020 05:51 11,3 C 87 % 1021,9 hPa 0,0 l/m 11,9 km/h N-NW 340 0 min 0,0 UV-I 0 W/m 9,2 C 8,1 C 24,1 km/h
31.10.2020 05:48 11,3 C 87 % 1021,9 hPa 0,0 l/m 10,8 km/h N-NW 329 0 min 0,0 UV-I 0 W/m 9,2 C 8,6 C 25,7 km/h
31.10.2020 05:45 11,3 C 87 % 1021,9 hPa 0,0 l/m 11,2 km/h NW 321 0 min 0,0 UV-I 0 W/m 9,2 C 8,4 C 19,3 km/h
31.10.2020 05:42 11,3 C 87 % 1021,9 hPa 0,0 l/m 10,9 km/h NW 321 0 min 0,0 UV-I 0 W/m 9,2 C 8,6 C 19,3 km/h
31.10.2020 05:39 11,3 C 87 % 1021,9 hPa 0,0 l/m 7,8 km/h N-NW 347 0 min 0,0 UV-I 0 W/m 9,2 C 10,3 C 14,5 km/h
31.10.2020 05:36 11,3 C 87 % 1021,9 hPa 0,0 l/m 9,6 km/h N-NW 327 0 min 0,0 UV-I 0 W/m 9,2 C 9,3 C 16,1 km/h
31.10.2020 05:33 11,3 C 87 % 1021,8 hPa 0,0 l/m 9,0 km/h N-NW 329 0 min 0,0 UV-I 0 W/m 9,2 C 9,6 C 17,7 km/h
31.10.2020 05:30 11,3 C 87 % 1021,9 hPa 0,0 l/m 10,2 km/h NW 307 0 min 0,0 UV-I 0 W/m 9,2 C 8,9 C 17,7 km/h
31.10.2020 05:27 11,3 C 87 % 1021,9 hPa 0,0 l/m 10,7 km/h W 275 0 min 0,0 UV-I 0 W/m 9,2 C 8,7 C 20,9 km/h
31.10.2020 05:24 11,3 C 87 % 1021,9 hPa 0,0 l/m 8,0 km/h N-NW 344 0 min 0,0 UV-I 0 W/m 9,2 C 10,2 C 14,5 km/h
31.10.2020 05:21 11,3 C 88 % 1021,9 hPa 0,0 l/m 9,2 km/h N-NW 327 0 min 0,0 UV-I 0 W/m 9,4 C 9,5 C 19,3 km/h
31.10.2020 05:18 11,3 C 88 % 1022,0 hPa 0,0 l/m 5,5 km/h W-NW 290 0 min 0,0 UV-I 0 W/m 9,4 C 11,3 C 12,9 km/h
31.10.2020 05:15 11,3 C 87 % 1022,0 hPa 0,0 l/m 9,8 km/h W-NW 297 0 min 0,0 UV-I 0 W/m 9,2 C 9,1 C 17,7 km/h
31.10.2020 05:12 11,3 C 88 % 1022,0 hPa 0,0 l/m 11,8 km/h N-NW 329 0 min 0,0 UV-I 0 W/m 9,4 C 8,1 C 24,1 km/h
31.10.2020 05:09 11,3 C 88 % 1022,0 hPa 0,0 l/m 7,6 km/h NW 319 0 min 0,0 UV-I 0 W/m 9,4 C 10,5 C 16,1 km/h
31.10.2020 05:06 11,3 C 88 % 1022,0 hPa 0,0 l/m 12,4 km/h NW 321 0 min 0,0 UV-I 0 W/m 9,4 C 7,8 C 22,5 km/h
31.10.2020 05:03 11,3 C 88 % 1022,1 hPa 0,0 l/m 7,7 km/h NW 321 0 min 0,0 UV-I 0 W/m 9,4 C 10,4 C 12,9 km/h
31.10.2020 05:00 11,3 C 88 % 1022,1 hPa 0,0 l/m 10,0 km/h N-NW 330 0 min 0,0 UV-I 0 W/m 9,4 C 9,0 C 17,7 km/h
31.10.2020 04:57 11,3 C 88 % 1022,2 hPa 0,0 l/m 14,3 km/h W 272 0 min 0,0 UV-I 0 W/m 9,4 C 7,0 C 27,4 km/h
31.10.2020 04:54 11,2 C 88 % 1022,1 hPa 0,0 l/m 12,4 km/h NW 319 0 min 0,0 UV-I 0 W/m 9,3 C 7,7 C 22,5 km/h
31.10.2020 04:51 11,2 C 89 % 1022,1 hPa 0,0 l/m 13,6 km/h W-NW 302 0 min 0,0 UV-I 0 W/m 9,5 C 7,2 C 24,1 km/h
31.10.2020 04:48 11,2 C 89 % 1022,0 hPa 0,0 l/m 12,2 km/h W-NW 299 0 min 0,0 UV-I 0 W/m 9,5 C 7,8 C 27,4 km/h
31.10.2020 04:45 11,2 C 89 % 1022,0 hPa 0,0 l/m 12,5 km/h N-NW 338 0 min 0,0 UV-I 0 W/m 9,5 C 7,7 C 20,9 km/h
31.10.2020 04:42 11,2 C 89 % 1022,0 hPa 0,0 l/m 12,4 km/h NW 325 0 min 0,0 UV-I 0 W/m 9,5 C 7,7 C 22,5 km/h
31.10.2020 04:39 11,1 C 89 % 1022,0 hPa 0,0 l/m 13,8 km/h NW 323 0 min 0,0 UV-I 0 W/m 9,4 C 7,0 C 25,7 km/h
31.10.2020 04:36 11,1 C 89 % 1022,0 hPa 0,0 l/m 13,4 km/h NW 322 0 min 0,0 UV-I 0 W/m 9,4 C 7,1 C 27,4 km/h
31.10.2020 04:33 11,1 C 89 % 1021,9 hPa 0,0 l/m 11,6 km/h W-NW 299 0 min 0,0 UV-I 0 W/m 9,4 C 8,0 C 24,1 km/h
31.10.2020 04:30 11,1 C 90 % 1022,0 hPa 0,0 l/m 14,7 km/h N-NW 344 0 min 0,0 UV-I 0 W/m 9,5 C 6,6 C 24,1 km/h
31.10.2020 04:27 11,0 C 90 % 1021,9 hPa 0,0 l/m 11,0 km/h N-NW 331 0 min 0,0 UV-I 0 W/m 9,4 C 8,2 C 22,5 km/h
31.10.2020 04:24 11,0 C 90 % 1022,0 hPa 0,0 l/m 9,2 km/h N-NW 332 0 min 0,0 UV-I 0 W/m 9,4 C 9,2 C 29,0 km/h
31.10.2020 04:21 11,0 C 91 % 1021,9 hPa 0,0 l/m 11,4 km/h W-NW 303 0 min 0,0 UV-I 0 W/m 9,6 C 8,0 C 17,7 km/h
31.10.2020 04:18 10,9 C 91 % 1021,9 hPa 0,0 l/m 14,6 km/h NW 319 0 min 0,0 UV-I 0 W/m 9,5 C 6,4 C 29,0 km/h
31.10.2020 04:15 10,9 C 91 % 1022,0 hPa 0,0 l/m 15,0 km/h W-NW 290 0 min 0,0 UV-I 0 W/m 9,5 C 6,2 C 22,5 km/h
31.10.2020 04:12 10,9 C 91 % 1021,9 hPa 0,0 l/m 11,1 km/h NW 312 0 min 0,0 UV-I 0 W/m 9,5 C 8,0 C 24,1 km/h
31.10.2020 04:09 10,9 C 92 % 1021,9 hPa 0,0 l/m 10,0 km/h N-NW 348 0 min 0,0 UV-I 0 W/m 9,7 C 8,6 C 17,7 km/h
31.10.2020 04:06 10,9 C 92 % 1021,9 hPa 0,0 l/m 11,4 km/h W-NW 289 0 min 0,0 UV-I 0 W/m 9,7 C 7,8 C 24,1 km/h
31.10.2020 04:03 10,9 C 92 % 1021,9 hPa 0,0 l/m 12,3 km/h NW 308 0 min 0,0 UV-I 0 W/m 9,7 C 7,4 C 27,4 km/h
31.10.2020 04:00 10,9 C 92 % 1021,9 hPa 0,0 l/m 14,5 km/h NW 311 0 min 0,0 UV-I 0 W/m 9,7 C 6,4 C 30,6 km/h
31.10.2020 03:57 10,8 C 92 % 1021,9 hPa 0,0 l/m 11,6 km/h NW 317 0 min 0,0 UV-I 0 W/m 9,6 C 7,6 C 25,7 km/h
31.10.2020 03:54 10,8 C 93 % 1021,9 hPa 0,0 l/m 12,8 km/h N-NW 338 0 min 0,0 UV-I 0 W/m 9,7 C 7,1 C 29,0 km/h
31.10.2020 03:51 10,8 C 93 % 1021,9 hPa 0,0 l/m 13,5 km/h N-NW 345 0 min 0,0 UV-I 0 W/m 9,7 C 6,7 C 32,2 km/h
31.10.2020 03:48 10,8 C 93 % 1022,0 hPa 0,0 l/m 11,0 km/h N-NW 332 0 min 0,0 UV-I 0 W/m 9,7 C 7,9 C 20,9 km/h
31.10.2020 03:45 10,8 C 93 % 1021,8 hPa 0,0 l/m 14,4 km/h W-NW 296 0 min 0,0 UV-I 0 W/m 9,7 C 6,4 C 29,0 km/h
31.10.2020 03:42 10,8 C 93 % 1021,8 hPa 0,0 l/m 10,3 km/h NW 322 0 min 0,0 UV-I 0 W/m 9,7 C 8,3 C 17,7 km/h
31.10.2020 03:39 10,8 C 93 % 1021,9 hPa 0,0 l/m 8,8 km/h W-NW 288 0 min 0,0 UV-I 0 W/m 9,7 C 9,2 C 17,7 km/h
31.10.2020 03:36 10,8 C 93 % 1022,0 hPa 0,0 l/m 8,1 km/h W-NW 299 0 min 0,0 UV-I 0 W/m 9,7 C 9,6 C 12,9 km/h
31.10.2020 03:33 10,8 C 93 % 1022,0 hPa 0,2 l/m 10,4 km/h N-NW 335 0 min 0,0 UV-I 0 W/m 9,7 C 8,3 C 20,9 km/h
31.10.2020 03:30 10,8 C 93 % 1022,0 hPa 0,0 l/m 12,7 km/h N-NW 327 0 min 0,0 UV-I 0 W/m 9,7 C 7,1 C 25,7 km/h
31.10.2020 03:27 10,8 C 93 % 1022,1 hPa 0,0 l/m 11,8 km/h W-NW 284 0 min 0,0 UV-I 0 W/m 9,7 C 7,5 C 19,3 km/h
31.10.2020 03:24 10,8 C 93 % 1022,0 hPa 0,0 l/m 11,2 km/h N-NW 335 0 min 0,0 UV-I 0 W/m 9,7 C 7,8 C 22,5 km/h
31.10.2020 03:21 10,8 C 93 % 1022,1 hPa 0,0 l/m 7,3 km/h N-NW 329 0 min 0,0 UV-I 0 W/m 9,7 C 10,2 C 12,9 km/h
31.10.2020 03:18 10,8 C 93 % 1022,0 hPa 0,2 l/m 9,3 km/h NW 306 0 min 0,0 UV-I 0 W/m 9,7 C 8,9 C 16,1 km/h
31.10.2020 03:15 10,8 C 93 % 1022,0 hPa 0,0 l/m 11,6 km/h N-NW 342 0 min 0,0 UV-I 0 W/m 9,7 C 7,6 C 24,1 km/h
31.10.2020 03:12 10,8 C 93 % 1022,1 hPa 0,2 l/m 11,6 km/h W-NW 294 0 min 0,0 UV-I 0 W/m 9,7 C 7,6 C 24,1 km/h
31.10.2020 03:09 10,8 C 93 % 1022,1 hPa 0,0 l/m 11,6 km/h NW 315 0 min 0,0 UV-I 0 W/m 9,7 C 7,6 C 22,5 km/h
31.10.2020 03:06 10,8 C 93 % 1022,1 hPa 0,2 l/m 11,6 km/h N-NW 340 0 min 0,0 UV-I 0 W/m 9,7 C 7,6 C 22,5 km/h
31.10.2020 03:03 10,8 C 93 % 1022,0 hPa 0,0 l/m 10,0 km/h N-NW 343 0 min 0,0 UV-I 0 W/m 9,7 C 8,5 C 17,7 km/h
31.10.2020 03:00 10,8 C 93 % 1022,0 hPa 0,0 l/m 12,9 km/h NW 320 0 min 0,0 UV-I 0 W/m 9,7 C 7,0 C 22,5 km/h
31.10.2020 02:57 10,9 C 93 % 1021,8 hPa 0,2 l/m 11,1 km/h NW 321 0 min 0,0 UV-I 0 W/m 9,8 C 8,0 C 16,1 km/h
31.10.2020 02:54 10,9 C 93 % 1022,0 hPa 0,0 l/m 9,5 km/h NW 325 0 min 0,0 UV-I 0 W/m 9,8 C 8,9 C 17,7 km/h
31.10.2020 02:51 10,9 C 93 % 1022,0 hPa 0,0 l/m 10,8 km/h N-NW 327 0 min 0,0 UV-I 0 W/m 9,8 C 8,2 C 19,3 km/h
31.10.2020 02:48 10,9 C 93 % 1022,0 hPa 0,0 l/m 13,9 km/h N-NW 346 0 min 0,0 UV-I 0 W/m 9,8 C 6,7 C 27,4 km/h
31.10.2020 02:45 10,9 C 93 % 1022,1 hPa 0,2 l/m 12,0 km/h W-NW 284 0 min 0,0 UV-I 0 W/m 9,8 C 7,6 C 27,4 km/h
31.10.2020 02:42 10,9 C 93 % 1021,9 hPa 0,0 l/m 12,6 km/h NW 308 0 min 0,0 UV-I 0 W/m 9,8 C 7,3 C 19,3 km/h
31.10.2020 02:39 10,9 C 93 % 1022,0 hPa 0,0 l/m 10,6 km/h N 355 0 min 0,0 UV-I 0 W/m 9,8 C 8,3 C 22,5 km/h
31.10.2020 02:36 11,0 C 93 % 1022,0 hPa 0,2 l/m 11,5 km/h W-NW 287 0 min 0,0 UV-I 0 W/m 9,9 C 7,9 C 16,1 km/h
31.10.2020 02:33 11,0 C 93 % 1022,0 hPa 0,0 l/m 9,9 km/h N 360 0 min 0,0 UV-I 0 W/m 9,9 C 8,8 C 22,5 km/h
31.10.2020 02:30 11,0 C 93 % 1022,0 hPa 0,0 l/m 11,9 km/h N-NW 343 0 min 0,0 UV-I 0 W/m 9,9 C 7,7 C 25,7 km/h
31.10.2020 02:27 11,1 C 93 % 1022,0 hPa 0,2 l/m 12,8 km/h W-NW 285 0 min 0,0 UV-I 0 W/m 10,0 C 7,4 C 24,1 km/h
31.10.2020 02:24 11,1 C 93 % 1021,9 hPa 0,0 l/m 11,8 km/h W-NW 301 0 min 0,0 UV-I 0 W/m 10,0 C 7,9 C 20,9 km/h
31.10.2020 02:21 11,1 C 93 % 1021,9 hPa 0,0 l/m 15,0 km/h NW 314 0 min 0,0 UV-I 0 W/m 10,0 C 6,5 C 25,7 km/h
31.10.2020 02:18 11,1 C 93 % 1022,0 hPa 0,2 l/m 12,8 km/h N-NW 331 0 min 0,0 UV-I 0 W/m 10,0 C 7,4 C 24,1 km/h
31.10.2020 02:15 11,1 C 93 % 1021,9 hPa 0,0 l/m 12,1 km/h NW 320 0 min 0,0 UV-I 0 W/m 10,0 C 7,7 C 22,5 km/h
31.10.2020 02:12 11,1 C 93 % 1021,9 hPa 0,2 l/m 12,4 km/h NW 307 0 min 0,0 UV-I 0 W/m 10,0 C 7,6 C 25,7 km/h
31.10.2020 02:09 11,1 C 93 % 1021,8 hPa 0,0 l/m 11,5 km/h NW 311 0 min 0,0 UV-I 0 W/m 10,0 C 8,0 C 29,0 km/h
31.10.2020 02:06 11,1 C 93 % 1021,9 hPa 0,0 l/m 12,3 km/h N-NW 343 0 min 0,0 UV-I 0 W/m 10,0 C 7,6 C 25,7 km/h
31.10.2020 02:03 11,1 C 93 % 1021,8 hPa 0,0 l/m 14,3 km/h N-NW 336 0 min 0,0 UV-I 0 W/m 10,0 C 6,8 C 29,0 km/h
31.10.2020 02:00 11,1 C 93 % 1022,0 hPa 0,0 l/m 12,2 km/h NW 317 0 min 0,0 UV-I 0 W/m 10,0 C 7,7 C 24,1 km/h
31.10.2020 01:57 11,2 C 93 % 1022,0 hPa 0,0 l/m 13,3 km/h W 267 0 min 0,0 UV-I 0 W/m 10,1 C 7,3 C 29,0 km/h
31.10.2020 01:54 11,2 C 93 % 1021,9 hPa 0,0 l/m 15,9 km/h NW 312 0 min 0,0 UV-I 0 W/m 10,1 C 6,2 C 29,0 km/h
31.10.2020 01:51 11,2 C 93 % 1021,8 hPa 0,2 l/m 12,8 km/h N-NW 331 0 min 0,0 UV-I 0 W/m 10,1 C 7,5 C 27,4 km/h
31.10.2020 01:48 11,2 C 93 % 1021,8 hPa 0,2 l/m 17,6 km/h N-NW 343 0 min 0,0 UV-I 0 W/m 10,1 C 5,6 C 33,8 km/h
31.10.2020 01:45 11,2 C 93 % 1021,8 hPa 0,0 l/m 13,2 km/h W 277 0 min 0,0 UV-I 0 W/m 10,1 C 7,3 C 29,0 km/h
31.10.2020 01:42 11,2 C 93 % 1021,8 hPa 0,0 l/m 15,3 km/h W 270 0 min 0,0 UV-I 0 W/m 10,1 C 6,5 C 41,8 km/h
31.10.2020 01:39 11,2 C 93 % 1021,8 hPa 0,2 l/m 12,2 km/h N 360 0 min 0,0 UV-I 0 W/m 10,1 C 7,8 C 19,3 km/h
31.10.2020 01:36 11,2 C 93 % 1021,8 hPa 0,0 l/m 16,3 km/h W-NW 300 0 min 0,0 UV-I 0 W/m 10,1 C 6,1 C 43,5 km/h
31.10.2020 01:33 11,2 C 93 % 1021,8 hPa 0,0 l/m 20,4 km/h N 355 0 min 0,0 UV-I 0 W/m 10,1 C 4,7 C 38,6 km/h
_ Min-Zeit 07:00 05:54 12:24 - 07:00 - - - - - 07:00 01:33 07:00
Minimum _ 6,9 C 86 % 1020,3 hPa - 0,0 km/h - - - - - 6,2 C 4,7 C 0,0 km/h
_ Max-Zeit 23:33 09:21 04:57 07:00 00:27 - - 07:00 12:18 12:45 13:39 15:27 01:36
Maximum _ 12,2 C 98 % 1022,2 hPa 0,2 l/m 20,5 km/h
N
- - 0 min 1,1 UV-I 183 W/m 10,9 C 11,8 C 43,5 km/h
W-NW
Durchschnitt _ 10,7 C 93 % 1021,2 hPa #19,6 l/m 9,3 km/h NW - #0 min. 0,0 UV-I 0 W/m 9,6 C 8,4 C 18,7 km/h
Schulla EDV